Location: Carrières
(48.9495°N, 2.0407°E)
Time: 22:56:37
(UTC+00:00)

Tiros 1 - Pass Details

Date: 25 April 2024
Orbit: 624 x 657 km, 48.4° (Epoch: 24 May)

Event Time Altitude Azimuth Distance (km) Brightness Sun altitude
Rises 00:23:37 0° 262° (W) 2,933 - -27.3°
Reaches altitude 10° 00:25:57 10° 261° (W) 2,020 - -27.2°
Maximum altitude 00:30:37 83° 174° (S) 641 - -27.1°
Exits shadow 00:33:31 23° 88° (E) 1,355 8.9 -27.0°
Drops below altitude 10° 00:35:13 10° 87° (E) 2,003 9.8 -26.9°
Sets 00:37:32 0° 87° (E) 2,907 10.7 -26.9°
